Location: *
(46.3500°N, 10.9000°E)
Time: 00:48:48
(UTC+00:00)

Vanguard 2 - Pass Details

Date: 19 April 2021
Orbit: 552 x 2938 km, 32.9° (Epoch: 12 May)

Event Time Altitude Azimuth Distance (km) Brightness Sun altitude
Rises 09:51:04 0° 203° (SSW) 6,772 12.6 50.7°
Reaches altitude 10° 09:57:27 10° 190° (S) 5,641 12.5 51.3°
Maximum altitude 10:08:07 21° 151° (SSE) 4,314 12.5 52.2°
Drops below altitude 10° 10:16:49 10° 109° (ESE) 4,529 12.0 52.8°
Sets 10:21:04 0° 94° (E) 5,140 12.0 53.1°
